RH
21 19 21 27 34 39 41 41 40 38 37 36 35 34 33 32 31 30 28 29 26 25 22 16 12 11 14 17 18 14 8 8 9 9 10 12 14 16 19 22 23 23 22 21 20 20 20 21 22 23 23 23 22 22 22 25 25 25 24 24 24 24 25 24 22 19 16 13 12 12 12 10 7 4 2 2 5 9 11 7 2 2 2 2 1
24 24 26 33 37 41 41 40 40 39 38 37 36 36 35 34 32 31 29 28 27 26 24 18 12 11 13 17 19 16 9 8 9 9 12 13 15 17 20 22 23 23 22 21 21 21 21 21 23 24 23 23 23 22 23 25 26 25 24 24 24 24 25 25 24 23 20 17 14 14 15 15 12 8 5 3 2 5 10 9 4 2 2 2 2
25 27 30 36 40 42 41 41 41 41 40 38 38 38 37 36 34 32 30 29 28 26 25 21 15 11 13 17 19 19 12 7 9 10 12 14 16 19 21 22 23 23 22 21 21 21 21 22 23 24 24 24 24 23 23 25 26 25 24 24 24 24 25 25 25 25 23 22 19 17 17 18 17 14 10 6 3 3 6 10 7 3 2 3 3
25 28 32 37 40 43 43 44 44 43 41 40 40 40 39 38 37 34 31 29 29 27 27 25 19 15 12 15 18 20 17 9 8 10 12 14 17 20 22 23 23 23 22 22 21 22 21 22 23 25 25 24 24 24 23 24 26 26 24 24 24 24 24 25 27 27 25 24 23 20 20 20 19 18 15 11 6 3 3 6 9 6 3 2 3
28 30 33 37 42 45 46 47 45 44 42 42 42 42 42 41 40 37 34 31 30 29 28 27 24 22 15 14 16 20 21 13 8 10 13 14 17 19 21 22 23 23 23 22 21 22 22 22 23 25 25 25 24 24 24 24 26 25 25 25 24 24 24 26 30 29 25 24 24 23 23 23 21 20 18 15 11 6 4 2 5 8 7 4 2
38 36 39 42 46 47 47 47 46 45 43 44 44 45 44 44 43 41 37 33 32 31 31 29 28 28 18 13 15 17 22 18 10 9 12 14 16 18 21 21 22 23 23 23 22 22 23 23 23 25 26 25 25 25 24 24 25 25 25 24 24 24 23 26 31 29 26 25 25 25 25 25 24 22 20 18 15 11 7 4 2 5 7 8 5
47 47 46 44 46 46 46 47 46 45 44 45 45 47 47 47 46 45 42 37 35 33 32 31 29 29 20 15 15 15 21 22 15 9 10 14 16 18 20 22 22 23 23 22 22 22 23 23 24 25 26 26 26 25 25 25 25 25 24 23 23 23 23 25 29 28 26 25 24 25 26 27 26 25 23 20 18 15 12 9 5 3 4 6 8
46 49 45 42 42 43 44 44 44 43 44 46 47 48 49 51 51 50 47 41 39 36 34 34 33 29 22 19 17 16 22 26 21 13 9 13 15 17 20 23 23 23 24 23 23 23 23 23 24 25 26 26 26 26 25 25 25 25 24 23 22 22 22 23 26 26 25 25 24 24 24 25 26 26 26 23 20 17 16 13 9 6 3 3 5
44 45 41 40 37 37 36 35 36 38 42 46 48 51 54 56 57 56 52 47 43 39 37 36 37 33 27 24 23 21 24 27 27 19 11 11 15 17 20 23 24 24 24 23 23 23 24 24 24 25 26 27 27 27 26 26 25 25 25 23 22 22 22 23 27 28 26 25 25 24 23 24 24 26 26 25 23 20 18 16 13 10 7 5 3
35 34 31 26 25 25 25 27 30 36 42 47 51 55 60 62 63 61 58 54 48 44 41 40 40 38 30 27 30 29 29 29 29 24 13 10 13 16 20 22 24 25 24 24 24 23 24 24 25 25 26 28 28 27 27 26 26 25 26 25 23 22 22 25 28 27 24 24 23 23 22 23 23 24 25 25 26 23 20 18 16 14 11 9 7
18 17 17 14 18 19 22 30 36 43 47 51 57 61 66 67 68 67 64 60 54 49 46 44 42 41 33 30 34 34 34 32 30 27 17 11 12 15 18 22 24 25 25 24 24 24 24 24 25 26 27 28 28 28 27 27 27 26 26 27 25 24 22 25 28 24 23 24 22 23 22 22 22 23 23 23 24 25 24 21 18 16 14 12 10
15 13 15 14 18 22 29 36 42 46 49 55 61 66 69 71 74 74 72 67 63 58 53 49 46 44 38 39 47 47 44 37 30 28 21 13 10 14 17 20 23 25 25 25 25 24 24 24 25 26 27 28 28 28 28 28 27 27 27 27 27 26 24 24 27 27 27 27 24 22 23 22 22 22 22 22 22 23 25 24 23 19 16 14 12
20 18 18 18 20 25 31 37 44 47 52 60 65 70 72 75 80 81 80 77 76 70 62 55 52 50 44 58 71 69 63 48 35 28 23 17 11 11 14 17 20 23 25 25 25 25 24 24 24 25 26 27 28 28 28 28 28 28 28 28 28 27 27 24 27 31 27 24 24 22 23 22 22 22 22 22 22 22 22 24 25 23 21 17 15
25 23 22 23 25 27 30 35 44 48 56 64 70 74 74 77 82 87 88 87 86 79 74 65 62 57 48 68 84 83 80 65 50 37 26 19 14 10 11 14 16 20 22 25 26 26 25 24 25 24 26 27 28 29 29 28 28 29 28 28 29 28 28 26 26 33 30 23 24 23 23 23 22 22 21 22 22 21 22 21 23 24 24 22 19
32 30 28 26 30 33 37 40 46 51 60 70 72 73 76 81 85 92 92 91 92 86 84 75 74 69 52 61 78 87 89 79 65 48 33 22 16 13 10 12 13 17 19 22 26 26 27 25 25 25 25 25 27 29 29 29 29 29 30 29 29 28 28 28 26 31 30 24 25 24 23 23 22 22 22 21 21 21 22 21 21 22 23 24 24
34 32 31 28 32 38 45 48 51 55 63 70 71 74 80 85 88 92 91 92 93 92 92 82 80 78 61 54 63 84 94 91 74 50 39 27 19 17 12 11 10 13 16 18 21 24 27 26 26 26 25 25 25 27 27 28 29 29 30 30 29 29 29 29 28 30 31 25 26 26 23 24 23 23 22 22 22 21 21 21 21 21 21 22 23
30 30 33 32 34 40 46 49 53 58 65 69 73 80 83 87 91 91 92 92 92 94 94 84 79 76 70 54 50 76 92 96 81 49 39 31 24 21 16 14 11 10 11 13 15 18 23 25 26 26 26 26 25 25 25 27 29 30 30 30 30 30 29 30 28 29 33 27 26 29 24 24 24 23 23 22 22 22 22 21 21 21 21 21 21
28 32 37 38 38 43 46 47 51 56 65 72 78 82 84 90 94 95 96 92 92 95 87 82 79 72 70 54 45 70 87 94 82 48 34 30 27 26 22 20 18 16 14 13 12 13 15 18 22 25 25 26 26 25 25 25 27 30 31 31 30 30 30 30 29 29 33 26 25 31 26 25 25 24 24 23 23 22 22 22 22 22 21 21 21
32 35 38 40 42 45 45 48 52 55 62 70 74 78 83 91 94 97 96 89 94 95 84 82 81 70 70 58 44 64 87 93 72 42 33 33 34 32 29 28 28 29 27 24 21 18 15 14 15 18 21 23 26 26 26 25 25 27 30 32 32 32 30 30 30 30 30 26 27 31 29 27 26 25 25 24 24 23 23 23 22 22 22 22 21
46 43 39 41 42 44 48 54 57 59 65 67 67 73 83 89 93 97 94 90 95 95 87 84 82 77 75 59 45 61 83 79 54 38 40 41 40 37 34 35 37 38 36 35 32 29 26 22 18 15 16 18 22 25 26 26 26 25 26 28 30 31 31 31 30 29 30 29 29 30 31 29 27 26 26 25 25 24 24 24 23 22 22 22 22
51 45 38 39 39 45 52 58 59 61 66 65 64 72 82 88 91 92 90 91 95 96 91 85 83 81 72 56 51 61 64 55 45 45 48 45 44 42 41 42 41 39 37 36 35 35 34 32 30 25 21 18 17 20 23 26 26 26 26 25 27 27 29 29 30 33 32 32 31 30 31 30 29 28 26 26 24 24 24 25 25 23 22 22 22
42 40 38 38 41 49 56 61 61 59 61 61 62 69 77 82 83 83 85 90 92 94 94 89 82 76 69 63 60 57 51 49 50 53 52 51 50 47 45 43 39 37 36 37 36 37 37 37 39 38 36 31 26 21 20 23 26 27 27 26 26 25 27 26 31 36 33 33 33 31 32 31 31 29 27 26 25 24 23 24 24 24 23 22 22
36 42 43 42 49 59 66 69 63 60 60 57 60 67 72 74 75 75 81 88 88 89 90 87 84 80 74 69 63 57 56 57 58 58 57 57 53 48 42 37 36 38 39 41 41 42 42 44 47 49 48 45 41 33 25 21 23 26 27 28 28 27 27 25 29 32 30 34 34 31 33 33 32 31 29 26 25 25 23 23 23 23 24 22 22
33 41 45 48 59 70 75 72 62 61 61 58 63 68 69 70 71 74 81 84 85 84 86 87 86 82 75 70 68 65 63 64 64 60 56 53 48 44 39 37 39 41 45 47 47 49 50 53 57 60 58 55 51 45 37 28 22 23 26 28 28 28 28 30 36 33 30 37 38 34 33 32 33 33 31 28 25 24 24 24 23 22 23 22 22
30 36 47 54 68 74 73 68 62 64 64 63 65 67 68 69 70 73 76 78 82 81 85 90 85 80 77 74 74 72 70 68 65 57 50 46 44 45 43 41 42 44 47 49 51 54 56 60 64 67 67 65 62 56 52 45 33 22 22 25 27 29 31 41 47 39 34 39 40 39 34 31 32 32 32 29 25 23 23 23 23 23 23 22 23
29 37 50 58 66 64 60 64 66 69 69 67 66 67 67 70 73 73 73 77 83 83 85 87 80 81 81 78 76 75 72 66 60 55 49 46 46 47 47 46 46 49 50 52 56 57 60 67 71 74 73 72 72 69 66 65 57 42 28 21 23 25 32 50 54 44 42 44 45 44 39 34 34 32 31 29 25 24 23 23 23 22 22 23 23
30 40 51 54 58 59 61 67 71 73 72 69 68 69 68 72 76 75 77 80 83 84 87 85 79 81 80 77 75 71 67 62 58 54 51 50 49 49 50 50 52 54 54 59 67 66 68 72 73 74 70 66 67 71 72 69 69 63 50 36 30 27 35 55 56 49 49 47 50 53 46 39 35 33 31 29 27 25 24 24 23 23 23 23 23
34 41 52 53 53 62 73 76 74 76 77 73 69 70 72 76 78 77 77 78 77 80 86 85 79 79 81 77 71 66 62 58 57 55 54 53 51 51 51 52 56 59 59 65 70 67 68 68 65 65 62 60 61 67 70 66 63 62 60 57 50 39 41 54 53 50 53 50 50 53 50 45 39 36 33 30 28 27 27 25 24 24 24 23 23
43 43 50 56 59 65 76 77 76 78 78 74 67 67 72 75 75 72 73 75 73 78 86 86 82 81 81 75 66 64 62 60 59 56 55 55 54 52 49 49 55 59 59 62 64 61 61 62 65 66 65 65 64 66 65 64 68 61 57 66 68 55 45 48 48 50 56 55 52 50 51 51 47 43 38 34 30 28 27 25 25 25 25 25 24
51 49 54 63 67 71 78 80 78 77 72 67 64 66 71 73 71 67 71 76 74 80 88 86 85 82 75 68 64 62 61 58 56 56 55 55 58 53 49 52 57 61 62 61 62 60 61 65 72 73 69 69 69 70 64 62 70 67 59 65 75 72 58 50 47 50 55 57 56 54 55 56 51 46 42 39 35 32 28 26 25 25 25 25 24
57 57 69 74 76 81 83 80 76 72 67 64 64 66 67 69 70 67 72 79 79 84 88 85 81 75 67 63 59 56 55 53 50 52 53 56 59 55 54 59 59 60 61 60 58 59 65 68 71 71 68 69 71 71 65 61 66 70 67 67 72 78 76 68 59 53 53 56 56 58 61 61 58 52 47 44 40 37 32 27 26 25 25 25 25
61 62 76 77 83 91 83 75 77 77 72 68 67 63 61 65 69 69 75 82 85 85 79 76 76 72 66 58 54 55 54 52 49 48 51 56 58 59 61 59 55 57 59 59 56 60 67 66 65 65 65 69 69 67 66 65 68 73 75 73 74 74 74 78 75 65 59 59 58 61 64 63 63 61 54 48 45 42 37 31 27 26 26 26 26
66 69 77 77 90 97 79 67 74 80 75 71 68 63 63 67 71 73 77 78 83 85 75 72 76 73 67 59 55 58 55 51 52 50 51 53 56 64 62 53 54 60 61 58 58 63 65 63 66 65 63 66 66 67 71 70 71 78 78 78 79 74 73 80 83 81 76 69 64 67 70 65 65 67 61 53 48 45 40 33 28 28 28 27 28
69 76 82 80 90 95 79 66 71 75 70 68 67 66 67 64 65 72 75 75 78 81 75 72 70 63 63 61 53 56 58 55 55 55 54 52 54 61 59 50 50 58 61 56 59 66 63 63 69 66 63 64 64 68 72 69 71 78 77 81 85 78 80 85 85 89 85 75 73 75 76 72 69 69 68 63 55 50 45 36 28 26 28 28 29
66 79 86 81 83 90 83 71 71 71 67 67 65 65 65 58 57 65 69 73 75 76 72 65 60 57 57 58 54 54 58 56 58 61 60 57 55 57 60 55 47 53 63 63 65 69 65 65 68 66 67 66 65 68 69 67 71 74 71 77 84 79 82 87 87 91 83 76 82 82 78 78 77 73 74 72 64 59 54 43 29 23 25 27 28
73 81 90 90 85 83 76 70 68 67 67 67 65 60 56 53 53 57 59 64 66 68 68 60 59 62 57 55 59 61 60 57 57 59 57 58 60 60 61 56 50 55 66 68 69 69 67 68 69 68 67 65 66 69 69 69 69 71 70 73 77 75 81 86 86 89 84 80 83 83 82 81 80 78 77 77 74 70 64 53 35 21 18 20 23
79 80 91 92 82 75 69 71 70 67 68 66 65 56 46 47 50 52 55 54 54 59 63 60 60 60 52 48 51 53 59 60 59 60 59 61 65 65 60 56 57 61 66 66 64 67 68 68 70 69 64 65 69 69 68 71 70 69 73 76 74 70 73 78 81 84 83 79 76 78 83 83 81 81 81 81 80 76 72 68 54 37 26 19 18
82 81 88 78 67 68 68 76 76 70 71 68 65 53 41 45 50 50 45 39 46 58 64 64 63 59 51 43 36 34 40 48 58 64 62 60 61 61 56 56 57 57 59 60 61 70 70 66 68 69 67 68 70 68 68 73 73 72 75 77 75 68 65 67 73 80 80 79 77 77 82 87 87 87 88 89 89 84 81 81 75 66 52 32 20
89 80 74 62 58 64 68 78 80 75 76 72 62 49 43 46 47 43 35 34 46 56 60 60 61 63 59 48 38 32 29 30 42 51 54 58 57 50 46 51 57 56 58 61 65 69 67 66 70 68 65 62 62 64 65 68 69 71 74 74 73 70 66 66 70 75 79 81 83 80 82 87 87 87 88 88 91 89 84 83 81 80 76 58 40
75 62 56 59 65 68 71 77 79 79 80 72 57 46 47 47 42 35 32 40 45 46 52 53 51 57 60 55 51 51 44 34 37 47 53 54 52 50 48 50 55 58 60 63 66 69 70 70 69 63 58 57 60 62 60 61 65 67 69 69 69 70 69 68 69 73 77 81 84 82 79 81 81 84 86 84 86 88 84 83 83 81 82 76 63
57 53 53 63 75 78 80 80 78 80 75 61 48 44 48 48 43 34 31 40 42 42 47 44 37 39 41 39 43 54 57 52 52 55 51 46 50 59 61 54 50 54 58 59 64 71 72 68 61 58 57 58 59 60 60 62 62 62 63 64 64 64 66 66 69 76 79 83 88 85 76 74 77 82 85 85 85 87 86 84 84 82 78 75 71
55 55 59 71 81 83 86 85 81 77 67 55 47 44 44 43 43 38 35 39 39 34 32 27 22 21 20 17 21 31 39 46 49 44 38 41 49 58 61 57 52 53 58 63 68 68 64 60 57 57 58 59 56 55 57 55 55 62 62 58 60 61 62 63 68 77 81 83 87 85 78 73 76 83 84 84 85 85 85 82 82 81 77 75 75
52 53 66 80 81 76 80 83 83 77 67 61 52 43 38 36 35 34 34 36 33 26 19 17 16 15 15 13 13 14 15 20 21 18 20 24 26 31 37 39 41 47 53 58 60 58 59 59 54 53 53 54 60 61 56 47 50 63 60 52 58 66 68 68 69 75 79 82 80 81 86 80 76 85 87 85 84 81 79 81 82 80 79 78 76
50 52 63 70 66 67 77 82 85 81 73 65 52 40 37 34 29 27 29 33 31 25 18 17 17 15 15 13 12 11 9 8 6 7 10 9 10 15 20 23 25 28 32 37 42 47 56 58 51 50 50 51 64 71 66 60 55 52 52 53 56 60 69 73 74 75 78 80 79 80 88 87 81 86 89 87 84 79 78 82 83 80 78 78 79
49 50 53 53 54 68 82 82 84 84 75 63 47 38 38 36 31 26 27 31 29 24 21 21 19 16 15 14 13 12 10 8 7 6 6 6 9 10 18 31 28 19 21 27 35 40 44 52 55 52 50 52 61 72 77 74 63 51 48 51 52 55 67 72 72 79 83 81 82 83 84 88 88 87 86 86 83 80 82 83 80 77 75 77 81
39 42 42 44 54 71 80 78 78 77 71 62 49 41 40 38 33 26 25 28 26 23 23 24 22 19 19 18 16 14 12 11 9 8 6 5 7 5 14 31 28 22 30 34 37 43 45 53 61 55 55 57 54 65 78 74 67 63 52 45 47 53 63 65 64 74 84 85 86 85 85 88 89 85 83 86 83 80 81 81 79 77 76 78 80
36 39 32 35 52 67 72 71 72 71 69 63 53 45 42 41 35 27 25 25 25 26 26 27 26 25 25 23 20 17 14 14 12 10 8 6 6 6 9 16 12 14 32 41 45 55 58 57 58 56 62 65 53 54 72 73 65 65 62 58 56 53 55 55 58 68 76 84 88 86 86 88 85 81 78 82 82 76 74 78 81 80 78 78 78
40 41 34 39 56 66 69 68 67 67 65 59 50 44 42 41 36 28 27 27 28 30 30 31 32 30 30 29 26 24 20 18 15 13 10 7 6 6 6 8 7 10 24 42 52 57 60 59 55 51 56 64 58 54 64 68 59 59 71 75 64 59 62 57 57 66 70 77 87 87 84 82 82 81 80 80 79 76 77 81 82 80 79 78 75
38 39 38 45 60 68 70 67 64 62 61 56 50 44 41 37 33 30 29 30 32 33 34 35 35 35 34 33 33 31 29 25 20 16 12 9 7 6 6 6 8 9 13 30 46 45 45 45 37 36 45 55 56 54 61 67 62 60 72 76 62 59 69 63 56 63 70 77 86 87 81 78 80 83 87 89 86 81 83 85 83 81 78 77 75
39 38 37 46 61 68 67 66 64 61 59 57 52 46 42 36 31 31 32 32 33 34 36 37 37 38 38 38 38 37 36 33 28 22 15 10 8 6 6 6 7 9 8 16 26 22 19 20 15 18 31 39 39 40 49 62 62 52 55 63 59 58 68 71 68 70 74 80 85 84 82 85 87 89 93 98 98 94 90 87 85 85 81 78 77
41 38 36 45 59 65 66 66 64 62 59 55 51 49 48 41 33 33 35 35 35 36 38 38 39 40 40 40 41 40 40 40 36 30 19 11 9 6 6 6 6 7 8 10 12 11 10 12 11 12 16 23 29 29 31 41 46 41 41 45 48 54 64 70 73 76 78 80 80 77 81 90 92 92 94 94 95 94 92 91 88 85 84 79 77
Wind_Speed
8 11 13 13 14 14 14 13 12 12 11 11 10 10 10 10 10 10 11 11 11 10 9 10 11 11 12 11 11 11 13 15 15 16 16 16 16 16 17 17 16 16 15 14 14 13 13 13 13 14 13 14 14 14 16 17 17 17 16 17 17 18 19 19 20 20 20 20 21 23 24 24 24 24 26 27 25 23 22 22 21 20 18 18 17
10 12 13 12 14 14 14 13 12 11 11 10 10 11 11 11 11 11 11 12 11 11 10 10 12 12 12 12 11 11 13 15 16 17 17 17 17 16 16 17 16 16 16 15 14 14 13 13 14 14 13 14 14 13 15 17 17 16 16 16 17 17 18 19 20 20 20 20 21 22 24 24 24 24 25 27 27 26 25 24 23 22 20 20 20
12 13 13 13 13 13 13 12 11 11 10 10 10 11 11 11 12 11 12 12 12 11 10 10 11 13 13 12 12 12 13 15 16 17 18 18 18 18 17 17 16 16 16 16 15 14 14 14 14 14 13 14 13 13 14 16 16 16 16 16 16 16 17 18 20 20 20 21 21 22 24 25 24 24 25 26 27 28 28 26 24 23 23 22 21
13 14 14 14 14 13 12 11 10 10 10 10 10 11 12 12 12 12 12 12 12 11 11 10 11 13 13 12 12 12 13 14 16 18 18 19 20 20 19 18 17 16 15 15 15 14 14 14 14 14 13 13 13 12 13 15 16 16 15 15 15 15 16 17 18 19 19 21 21 22 24 25 24 24 25 25 25 27 29 28 25 24 25 24 22
12 14 14 14 14 12 11 10 9 9 9 10 10 11 12 13 13 13 13 13 12 11 11 10 10 12 12 12 12 12 13 13 15 17 19 20 20 20 20 19 18 17 16 15 15 15 14 14 15 14 13 13 13 12 12 13 15 15 15 14 14 14 15 16 17 17 18 20 21 23 25 24 24 24 23 24 24 25 27 28 28 26 26 25 24
11 13 14 14 13 11 10 9 9 9 9 10 11 12 12 13 14 14 13 13 12 11 10 10 9 11 12 11 12 12 13 14 14 16 18 20 20 20 20 19 18 17 17 16 15 15 15 14 15 15 14 13 13 12 11 12 14 14 13 13 13 13 13 15 14 15 17 20 22 23 25 24 23 23 23 23 23 24 26 27 28 28 27 26 25
12 12 13 12 11 10 9 9 9 9 10 11 12 13 13 14 14 13 13 12 11 11 10 9 9 10 11 11 11 12 13 14 14 15 17 19 20 21 21 20 19 18 17 16 15 15 15 14 15 15 14 13 13 12 11 11 12 12 12 12 12 11 11 12 12 14 16 19 22 24 23 22 22 22 22 22 23 23 25 26 27 28 29 28 25
12 12 12 11 10 10 9 9 9 10 11 12 13 13 14 14 13 12 12 11 11 11 11 10 10 9 10 10 11 11 12 13 14 14 16 18 20 20 21 20 19 19 18 17 17 16 15 14 15 16 15 14 14 12 11 11 11 11 11 11 11 10 10 10 11 13 15 18 22 22 20 20 20 20 21 21 22 22 24 25 25 26 28 28 27
12 12 11 11 10 9 9 10 11 12 13 13 13 14 14 14 12 11 11 11 11 11 11 10 10 9 9 9 10 11 11 13 14 14 15 17 18 20 20 21 20 20 19 18 18 17 17 15 15 16 15 15 14 13 11 10 10 10 10 10 10 9 9 9 10 12 14 18 19 18 18 18 18 19 19 20 21 21 22 24 24 25 26 27 28
12 11 11 10 9 9 10 11 12 13 13 14 14 14 14 13 11 11 11 11 12 12 12 11 10 9 8 9 9 10 11 13 14 14 15 16 17 19 20 21 21 20 20 19 19 18 18 17 16 15 16 16 15 14 12 11 10 9 9 9 9 8 8 8 9 10 14 17 16 15 16 17 17 17 18 18 19 20 22 22 23 23 24 25 26
11 10 10 10 10 10 11 12 13 13 13 14 14 14 13 12 12 12 12 12 13 13 13 11 10 9 9 8 8 10 11 12 13 14 15 15 16 18 19 21 21 21 20 19 19 18 18 17 17 16 16 17 16 15 14 12 10 10 9 8 8 7 7 7 8 8 12 14 13 13 14 15 15 16 16 16 17 19 21 21 21 22 22 23 24
10 11 10 10 11 11 12 12 13 13 14 14 13 13 12 12 12 12 12 12 13 12 12 11 10 10 9 8 8 9 10 11 13 14 15 16 16 16 18 19 20 20 21 20 19 19 18 18 17 17 17 17 17 16 15 13 12 11 10 9 8 8 6 6 6 6 9 11 11 12 12 13 14 14 14 15 16 17 19 19 20 20 21 21 22
9 10 8 9 10 10 11 12 12 13 13 13 13 12 12 12 12 12 12 12 12 11 11 11 10 9 8 9 9 9 10 10 12 14 15 16 15 15 15 17 19 20 20 20 20 19 19 18 18 18 18 18 17 17 16 15 14 12 11 10 9 8 7 6 6 5 7 9 10 10 9 10 11 12 12 13 14 15 16 17 18 19 19 20 20
7 7 6 6 7 9 11 11 12 12 13 13 12 12 12 12 13 13 12 12 11 10 11 11 9 8 9 10 11 10 10 10 10 12 14 15 15 14 13 14 16 18 19 20 20 20 19 18 18 18 18 18 17 17 17 16 15 14 13 12 10 9 8 7 7 6 7 8 8 7 7 7 8 10 10 11 12 13 14 15 16 17 18 18 19
7 6 5 6 8 9 11 12 11 12 12 12 11 12 12 13 13 12 12 13 12 10 10 12 10 10 11 13 12 11 10 10 9 9 12 14 14 14 13 13 14 16 18 19 20 20 20 19 19 19 20 19 18 18 18 17 17 16 15 13 12 11 10 9 8 8 8 8 8 6 5 5 5 7 8 9 10 11 12 13 15 15 16 17 17
6 5 7 9 10 11 12 12 11 12 12 12 12 13 14 14 13 12 13 13 13 11 12 15 14 13 14 15 13 12 11 10 8 8 10 12 13 13 13 13 13 15 16 18 18 19 20 20 20 20 20 20 20 19 19 19 19 19 17 15 14 12 12 11 10 10 9 8 8 6 4 3 2 3 5 6 7 9 10 11 13 14 14 15 15
5 7 9 11 12 13 13 12 12 13 13 13 13 14 15 15 14 12 14 15 16 14 13 17 18 17 15 15 14 13 12 11 8 7 9 11 13 13 13 12 12 14 14 15 16 17 19 19 20 21 21 21 21 20 20 21 20 20 19 18 16 15 14 13 12 12 11 10 9 7 5 4 2 1 1 3 4 6 7 9 10 12 13 14 14
7 9 11 12 13 12 12 13 14 14 14 15 15 16 15 14 14 13 14 15 15 14 12 15 18 18 17 16 15 15 13 12 10 8 10 12 13 13 12 10 10 11 12 13 13 15 17 18 20 21 22 22 21 21 22 22 22 21 21 19 19 17 16 15 14 14 14 12 9 7 7 5 4 3 2 1 1 3 4 6 8 9 10 12 13
9 11 12 12 12 13 14 14 15 15 14 16 16 16 15 14 13 12 13 14 15 14 12 14 16 17 18 18 16 16 15 12 10 10 12 13 13 12 10 8 9 10 10 11 12 13 15 17 19 20 21 22 22 22 23 23 23 23 22 21 20 19 19 18 17 17 17 14 11 10 9 7 6 5 4 4 2 2 2 3 5 6 8 9 11
10 11 12 11 13 15 15 15 15 15 14 15 16 16 15 13 12 12 13 13 15 15 14 16 15 14 14 16 16 16 14 12 11 13 14 13 12 10 8 8 8 8 9 10 11 12 13 15 16 18 20 21 21 22 23 23 24 24 24 23 22 21 21 20 20 20 19 16 15 13 11 10 9 8 7 6 5 5 4 4 4 4 6 7 8
12 12 13 13 14 16 16 16 17 16 15 15 15 14 12 12 12 13 13 12 14 16 16 17 13 12 11 13 14 14 13 13 13 14 12 10 9 8 8 9 8 8 10 10 11 11 12 13 13 15 16 18 19 21 22 22 24 24 24 24 23 23 22 21 21 22 21 19 17 16 15 13 12 11 9 8 8 7 7 6 5 5 4 5 6
12 14 14 15 16 16 16 16 16 15 14 13 13 12 12 13 13 14 14 12 14 16 17 16 11 12 13 13 14 14 14 13 12 10 8 7 7 7 9 8 8 9 10 10 11 11 12 12 12 13 13 14 15 17 20 21 22 23 24 24 24 24 24 23 21 23 23 20 19 19 18 17 16 14 12 10 9 9 9 8 8 7 6 5 5
13 14 15 16 16 15 14 13 14 13 11 12 12 11 11 12 13 14 13 12 14 16 16 15 12 14 14 14 13 13 12 10 8 7 6 7 7 7 8 8 9 9 9 10 10 11 11 12 12 11 11 11 12 13 16 19 21 22 24 23 24 24 23 22 22 25 24 21 21 21 20 19 18 17 15 13 12 11 11 11 10 9 8 7 6
13 14 16 17 17 16 14 13 13 12 10 11 11 10 10 11 11 12 12 12 14 16 15 13 13 14 14 14 12 11 11 9 8 8 8 8 7 7 7 8 8 9 10 10 10 11 12 12 11 10 9 10 10 11 13 15 18 21 23 23 24 23 22 21 21 26 25 21 21 22 22 21 20 19 18 16 15 13 13 12 12 11 10 9 7
13 14 17 19 18 17 15 14 13 11 10 10 10 10 10 9 9 9 9 10 12 14 13 12 11 12 13 13 11 11 12 12 12 10 9 8 7 7 7 8 8 9 10 10 11 12 13 12 12 11 9 8 8 9 10 11 14 18 20 22 24 23 22 20 22 27 26 22 22 22 23 23 21 21 20 19 17 16 15 14 13 13 11 10 9
14 15 18 19 18 16 15 14 12 10 10 10 9 9 9 8 7 8 8 10 12 13 12 9 9 12 13 11 10 10 11 13 13 11 10 10 9 9 9 9 9 9 9 11 13 14 15 14 13 11 11 10 9 9 9 10 11 14 17 20 23 23 22 21 23 26 25 23 23 23 24 23 23 22 22 21 20 18 16 15 15 14 13 12 10
15 16 19 20 18 16 14 14 12 11 10 9 8 9 9 8 8 8 9 11 13 13 11 9 10 12 12 11 10 8 9 11 12 12 12 11 11 11 10 10 10 10 10 11 13 14 15 14 10 8 10 11 10 10 11 11 11 12 13 16 19 21 21 21 23 24 24 24 23 23 23 24 24 24 23 23 22 20 18 17 16 15 14 13 12
17 18 20 20 18 16 15 14 13 12 10 8 10 10 9 9 9 10 12 13 11 11 12 11 10 11 11 9 8 7 8 9 10 11 11 11 12 12 11 10 10 11 12 12 13 12 12 10 7 6 9 13 12 11 11 12 12 13 14 14 15 19 21 22 23 23 23 23 23 22 21 23 24 24 24 24 23 22 20 18 17 16 15 14 14
19 20 19 17 17 17 18 14 13 14 10 9 10 10 9 9 9 10 12 11 10 9 10 11 10 10 9 7 7 7 7 8 9 10 10 11 12 12 11 10 10 12 13 12 12 11 10 8 7 7 9 11 12 12 12 11 11 13 14 13 13 15 19 21 21 20 21 21 22 21 21 22 23 24 24 24 24 23 22 21 19 18 16 15 15
21 21 18 16 17 20 19 15 15 15 9 7 8 8 8 7 8 8 9 10 10 8 7 9 8 8 9 8 8 7 7 7 8 9 10 11 11 11 11 10 11 11 12 11 11 10 9 7 7 8 8 10 11 12 13 12 11 13 14 14 12 11 15 18 19 19 20 19 19 20 19 20 21 23 24 24 24 24 24 23 21 20 18 17 16
23 21 17 16 18 22 18 14 14 11 6 7 9 9 7 7 7 8 9 10 9 8 8 9 9 8 7 8 8 6 7 7 8 9 10 11 10 9 9 9 10 10 11 10 10 9 6 6 7 7 8 9 10 11 13 12 12 13 14 14 12 11 14 15 16 18 19 19 19 19 18 18 19 20 22 23 24 24 24 24 23 22 21 19 18
24 20 18 17 18 19 14 9 10 8 5 7 9 8 7 6 7 10 10 8 8 10 9 8 9 10 8 8 7 7 8 8 9 10 11 12 11 9 8 10 10 10 10 9 9 7 6 7 7 7 8 9 9 10 11 11 12 13 14 14 13 15 16 13 12 16 17 18 19 18 18 17 18 18 20 21 22 23 23 23 23 23 23 21 20
23 21 20 18 17 15 10 6 8 8 7 7 7 7 7 6 7 11 10 7 8 10 8 6 8 9 8 8 8 9 9 9 11 11 12 12 11 9 9 10 9 9 10 9 8 6 6 7 7 7 8 8 8 8 9 10 11 12 13 15 15 16 15 13 13 16 15 17 19 18 17 17 18 17 17 19 20 21 22 23 23 23 24 22 21
22 21 19 17 18 14 8 6 7 7 7 7 7 7 7 8 9 11 12 9 10 10 7 6 5 5 6 6 7 10 11 11 12 12 12 12 10 9 10 10 9 9 9 9 7 5 6 7 7 7 7 8 8 8 9 9 10 11 13 14 14 14 14 13 15 16 15 17 18 18 17 17 18 17 15 16 17 19 21 22 23 23 23 23 22
22 20 18 16 16 11 6 7 7 8 9 9 8 7 7 8 9 10 10 9 9 8 7 6 4 4 5 4 6 8 10 10 10 11 11 10 9 8 9 9 9 8 8 7 7 6 6 7 7 7 8 8 8 9 9 9 10 12 12 12 12 13 14 14 13 14 16 18 17 17 17 15 16 16 14 13 14 16 18 21 22 22 22 22 22
20 19 17 14 13 8 5 6 7 10 11 10 10 7 7 8 7 6 5 3 3 3 5 5 3 5 6 6 6 7 8 8 8 9 9 8 7 7 7 8 8 8 8 7 8 7 6 7 8 7 7 8 8 8 7 7 9 11 10 11 13 13 15 14 12 10 12 13 13 13 12 12 13 14 13 12 13 14 15 17 19 21 21 21 21
20 21 19 14 10 9 9 9 9 11 10 13 13 9 8 9 8 6 4 2 1 0 2 3 3 4 6 7 8 8 9 7 7 7 5 5 5 6 7 7 7 8 8 7 7 7 6 7 7 7 6 7 6 6 5 5 8 9 9 12 14 14 15 12 12 13 12 10 11 11 10 12 13 12 11 12 13 13 13 14 16 17 19 20 21
21 19 15 9 7 9 10 10 12 13 13 15 15 11 10 10 10 9 5 4 4 2 2 2 2 2 3 4 5 6 8 9 8 7 6 4 5 7 6 6 7 8 8 7 7 7 6 6 6 6 6 7 5 4 4 4 7 8 9 12 13 12 12 11 11 15 16 11 10 11 11 12 12 11 12 12 12 12 12 12 13 14 15 18 19
12 6 5 6 6 9 10 12 14 15 15 15 14 12 11 11 10 9 7 6 5 3 3 3 2 2 3 2 2 2 4 7 8 9 8 6 6 7 7 7 6 7 6 6 7 6 6 6 5 5 6 6 5 4 5 5 6 7 8 11 11 9 9 9 10 14 17 14 9 9 10 9 9 10 12 13 13 13 12 13 14 14 14 15 15
8 9 9 8 8 9 8 11 14 16 16 15 14 13 14 13 11 9 7 6 5 4 4 4 3 4 4 3 3 3 2 2 4 6 7 6 6 6 6 7 7 7 6 6 6 6 5 5 5 5 6 5 5 5 5 5 6 6 7 8 8 8 7 8 9 12 16 15 9 8 7 7 8 9 10 12 13 13 13 13 14 13 12 11 10
11 9 7 9 10 8 7 10 13 17 17 16 15 15 15 14 12 10 8 7 6 6 5 5 5 5 4 4 4 4 3 3 3 4 5 6 6 5 5 6 8 7 7 7 7 6 5 5 5 6 6 5 5 6 5 5 6 6 7 7 7 8 7 7 9 11 13 15 11 6 4 4 7 9 8 8 10 12 11 11 11 10 10 9 10
9 8 9 10 9 7 9 13 16 20 19 18 17 16 15 14 13 11 10 9 8 6 6 5 5 5 5 5 5 5 4 5 4 4 4 6 7 7 6 6 8 9 9 8 7 6 6 6 6 6 6 6 6 6 7 6 6 6 6 6 6 7 8 8 9 9 10 13 12 7 3 4 6 8 5 5 5 8 9 9 8 7 7 8 10
9 10 10 8 6 6 10 14 18 22 20 18 17 17 16 15 14 12 10 9 7 6 6 6 5 5 6 7 6 6 4 3 3 2 3 4 4 5 6 6 7 10 10 9 8 7 7 7 7 8 8 7 6 7 7 6 7 7 7 6 5 4 6 7 7 8 9 10 11 8 4 2 5 7 5 3 3 2 4 5 5 4 4 7 9
8 11 10 8 8 7 9 15 22 25 22 19 18 18 18 16 15 12 9 7 6 5 6 5 5 5 6 7 7 6 5 4 4 3 3 2 1 1 2 3 5 7 9 9 9 9 9 6 7 8 9 8 7 6 5 5 7 8 7 6 4 3 4 5 5 6 6 6 8 8 5 2 4 5 3 3 4 2 1 2 2 2 3 6 8
8 9 8 9 10 9 9 14 23 26 24 22 20 19 19 17 14 12 9 7 6 6 5 4 4 5 5 6 6 6 5 5 5 5 4 3 2 2 2 1 1 2 4 5 6 7 8 7 7 7 8 8 7 5 4 5 5 6 6 5 4 3 4 5 5 5 3 4 5 6 5 2 2 2 1 2 3 1 1 1 1 3 3 4 6
10 9 8 7 8 8 10 13 20 24 24 24 22 20 18 17 16 13 10 8 7 6 4 4 4 4 5 5 6 6 5 5 6 5 5 4 3 3 3 2 2 2 2 2 3 4 6 7 6 6 7 8 8 6 5 4 3 5 6 5 4 4 3 3 4 3 2 3 4 4 3 2 1 1 2 1 1 1 1 2 1 0 1 2 2
8 5 5 7 6 7 12 13 19 21 22 22 21 19 16 16 17 14 11 10 9 7 5 4 4 4 5 5 6 6 5 6 6 6 5 5 3 3 2 2 1 2 3 3 3 4 5 5 5 6 7 6 7 8 6 4 4 4 3 3 4 5 5 4 3 2 1 2 2 2 2 1 1 1 1 2 1 0 0 1 0 1 1 1 1
3 2 2 5 4 7 13 16 19 18 18 19 18 15 13 14 16 14 12 11 9 8 6 5 4 5 5 5 6 6 6 6 6 5 5 4 3 2 2 1 1 2 4 5 4 4 4 5 6 7 8 7 7 9 6 5 5 4 3 4 4 4 4 4 3 3 3 3 2 2 2 1 1 1 0 1 2 2 2 2 1 1 1 2 2
2 3 2 1 0 6 12 16 18 17 17 18 17 14 13 15 15 13 13 12 10 8 6 5 4 4 5 6 6 6 6 6 6 6 5 4 3 2 2 1 1 2 3 4 4 4 5 5 6 7 9 9 8 8 7 5 5 5 5 5 4 4 4 3 3 3 3 2 2 3 2 1 1 1 1 1 0 1 2 4 3 1 1 1 2
0 2 3 2 4 6 10 13 14 14 15 17 17 16 16 16 15 14 14 12 10 8 7 5 4 4 5 5 6 7 7 8 7 6 5 4 3 2 2 2 2 2 2 3 3 3 3 3 4 5 7 7 7 8 8 6 6 6 5 4 4 4 4 2 2 3 3 4 5 5 5 4 3 2 2 1 1 1 1 2 3 3 2 3 3
3 3 5 4 5 6 9 12 13 12 13 15 18 19 18 18 17 16 14 13 11 8 7 5 4 4 4 4 5 6 7 8 8 7 6 5 4 3 2 2 2 2 2 2 2 2 2 2 3 3 4 5 5 6 7 6 5 5 4 4 4 4 4 2 2 3 4 5 6 7 6 6 4 4 4 3 1 2 2 1 2 3 3 3 3
Wind_Direction
215 210 211 212 209 207 205 206 210 219 229 233 236 240 246 248 246 239 233 227 221 211 201 195 192 186 181 173 164 160 152 146 146 146 150 153 154 157 158 158 158 156 152 150 146 141 134 127 123 119 116 110 106 106 103 99 94 90 88 87 85 84 82 79 76 74 73 73 72 70 67 64 61 60 59 59 58 60 59 56 55 57 61 68 69
211 209 207 208 206 204 203 205 211 219 227 231 235 241 246 249 248 242 236 230 223 213 204 196 193 189 184 179 167 162 157 151 150 151 154 158 158 161 162 162 161 159 156 154 150 145 138 132 128 125 121 114 113 110 107 103 98 95 92 90 88 86 85 82 79 76 74 72 71 71 68 65 61 58 58 58 57 58 60 58 57 59 63 68 73
209 208 206 205 203 201 202 206 212 219 225 229 235 241 247 249 248 244 237 232 226 216 207 201 195 188 184 182 172 163 161 156 154 156 159 162 163 164 167 167 166 164 161 157 154 150 143 137 132 130 126 120 119 115 111 109 104 100 96 93 90 88 87 84 81 78 75 73 71 71 70 67 62 59 57 57 57 58 60 60 59 62 64 67 72
202 204 206 201 198 197 201 208 212 219 225 229 236 242 248 249 249 245 239 234 227 220 211 207 199 188 182 183 181 166 162 160 159 161 165 166 167 168 171 172 170 169 166 162 158 154 149 141 137 136 133 127 124 121 118 115 111 107 103 99 93 90 88 86 84 80 79 78 75 72 71 68 65 62 59 58 57 59 60 61 61 62 65 67 69
198 202 201 195 193 193 199 205 210 218 225 231 239 244 248 249 250 245 241 238 230 224 217 212 204 190 183 185 187 175 166 165 165 167 169 170 170 172 173 174 173 172 170 168 164 159 155 147 144 143 141 135 130 128 124 121 118 114 110 105 99 93 90 88 87 86 85 81 78 73 71 70 67 65 62 60 58 59 60 61 62 63 64 65 67
190 196 193 189 187 188 195 201 209 218 227 234 241 245 249 249 249 247 244 240 236 230 223 219 209 195 192 191 189 185 174 169 171 172 173 174 173 174 175 177 176 175 173 171 168 164 161 154 149 150 149 143 138 135 131 128 124 121 116 111 106 99 94 91 90 92 89 83 80 75 72 70 68 67 64 62 59 59 60 61 62 64 64 64 66
174 179 181 179 178 185 192 200 211 219 228 237 243 247 249 250 250 249 248 245 242 236 231 226 217 204 201 197 192 191 183 176 174 175 178 179 177 176 178 180 179 177 176 173 171 170 168 162 155 155 156 151 147 143 139 136 131 128 124 119 113 107 102 96 94 94 91 87 82 75 72 70 69 67 66 65 62 60 61 61 61 63 64 64 65
162 167 175 174 179 186 193 203 212 221 230 237 243 248 250 251 252 253 252 250 247 241 238 231 225 215 206 199 194 192 188 182 178 178 181 183 181 179 180 182 183 180 178 176 175 175 174 169 163 161 162 160 156 152 148 144 141 137 132 126 117 111 106 101 98 94 90 85 78 74 73 71 69 68 66 65 64 63 63 62 61 62 64 64 64
159 167 174 176 184 188 198 207 215 224 231 238 243 248 252 254 256 258 257 254 251 245 240 236 228 221 211 202 195 190 189 187 185 182 181 185 184 182 183 185 187 185 182 180 179 178 177 175 170 167 167 168 164 161 157 154 154 149 142 132 122 115 111 105 99 94 90 82 76 75 75 71 68 67 65 64 64 65 65 64 63 62 63 64 64
159 169 176 181 188 193 205 212 221 229 234 242 246 250 256 261 266 266 263 257 253 246 240 236 231 225 219 209 199 189 188 190 189 186 183 185 187 185 185 188 190 189 186 184 184 182 181 179 176 174 173 174 172 169 165 165 166 161 154 144 133 126 121 113 101 99 95 85 81 80 76 73 68 65 62 62 63 64 65 65 64 63 62 63 64
161 173 179 185 191 201 211 220 229 235 242 247 251 258 265 270 275 274 269 260 252 247 243 239 232 226 222 212 200 193 189 191 191 190 186 185 189 187 187 191 192 192 190 188 188 187 186 184 181 180 180 181 180 177 173 174 176 175 169 159 151 143 144 134 119 113 101 92 88 82 78 75 70 65 61 61 61 60 63 65 66 65 64 63 63
169 178 183 193 202 212 218 227 235 241 248 253 259 265 272 277 279 276 271 263 257 251 246 241 233 224 218 203 192 192 187 187 192 193 190 188 190 189 188 192 195 197 195 192 192 191 191 190 187 186 187 187 187 185 182 181 183 186 182 177 171 164 169 162 148 132 110 103 96 86 80 77 73 67 61 59 59 58 59 62 64 66 65 64 64
179 181 191 203 212 223 229 236 241 248 252 257 264 268 273 276 276 272 268 264 261 256 249 241 233 222 206 193 184 182 178 179 188 192 192 190 190 190 189 191 196 200 199 198 197 195 196 195 194 193 194 193 192 192 190 189 189 194 194 190 189 183 187 189 178 152 130 122 108 95 86 80 77 71 64 59 57 57 57 58 59 62 65 65 65
194 196 213 223 228 235 240 246 249 254 257 261 265 269 271 268 270 270 268 263 253 248 250 242 230 217 198 191 184 175 170 169 178 186 190 190 189 190 189 190 196 202 204 204 202 199 200 201 199 199 201 200 197 198 198 197 196 200 203 200 199 196 198 206 203 182 165 146 121 108 99 87 80 75 67 61 57 56 56 55 55 56 59 62 64
209 212 234 240 246 250 250 255 260 263 263 266 266 266 265 262 266 268 270 265 251 243 248 242 219 203 198 193 190 179 169 161 163 177 185 186 186 187 187 188 194 203 207 209 208 205 204 205 205 205 206 205 203 202 203 204 204 206 209 209 208 207 208 212 218 213 193 166 143 134 123 104 88 81 72 64 59 55 54 53 52 52 53 55 58
216 225 242 248 254 255 258 262 265 268 267 268 267 266 265 263 264 267 270 267 265 258 249 245 218 197 196 193 192 186 175 163 160 170 176 178 177 180 184 186 192 200 206 209 210 210 209 208 210 212 211 209 207 206 207 208 209 212 214 215 216 216 217 218 226 228 216 192 166 160 156 139 113 90 79 69 61 56 52 50 49 49 49 49 51
233 240 245 250 257 258 262 265 263 264 266 265 264 266 266 267 267 270 272 270 272 254 234 240 221 201 195 189 190 188 180 171 168 169 168 169 166 168 173 179 190 197 202 208 211 212 213 212 214 217 217 215 212 211 212 212 212 215 217 218 221 223 225 226 230 233 230 214 180 172 187 181 185 176 81 68 60 53 49 48 47 46 45 44 45
247 246 247 252 258 262 262 260 261 260 260 260 261 264 267 271 270 269 272 275 272 245 224 235 223 207 195 181 184 184 179 175 172 165 160 157 154 153 154 165 183 190 195 203 210 214 214 215 215 218 219 218 216 216 216 215 216 217 218 220 223 226 229 230 231 236 236 223 198 192 202 203 215 231 250 286 32 36 37 39 41 42 42 41 39
250 248 250 261 266 266 263 261 262 260 259 260 262 264 266 269 271 271 274 277 269 247 231 237 228 214 191 172 178 179 178 179 169 156 151 145 139 135 138 165 182 182 187 195 204 210 213 216 217 219 220 220 219 219 218 218 219 220 221 221 224 227 231 234 234 235 237 230 222 218 214 217 225 235 248 258 276 311 347 7 24 32 37 37 36
246 252 255 264 266 263 261 261 261 261 265 269 267 265 265 266 266 269 269 268 260 244 232 234 225 207 178 160 170 174 176 175 159 149 143 136 129 130 157 191 194 189 197 202 205 208 212 216 218 221 222 222 221 220 220 219 221 222 223 224 225 228 230 234 237 237 236 234 233 230 228 231 231 233 243 253 264 275 290 308 337 3 20 27 32
244 255 261 262 261 259 258 257 259 262 270 275 268 262 260 259 259 261 262 257 249 242 236 235 217 190 166 152 162 165 165 157 146 140 134 132 136 159 196 212 211 209 212 211 212 213 215 218 220 223 224 225 224 223 222 221 222 224 226 226 227 229 230 233 238 239 236 235 237 236 235 237 236 236 239 249 260 267 275 282 295 316 342 2 16
250 255 260 261 262 261 258 255 258 262 266 267 263 256 251 252 254 253 257 250 240 238 233 229 204 172 161 149 148 145 145 142 138 132 131 147 167 197 220 224 222 219 216 214 216 218 221 222 223 225 226 227 226 225 224 223 223 224 227 228 229 230 231 233 237 240 236 234 237 239 240 240 239 239 240 245 254 263 269 273 280 290 303 323 345
250 254 261 262 260 257 252 251 257 261 257 259 256 249 247 250 251 249 250 240 236 241 232 217 183 158 150 143 140 140 142 142 143 152 168 182 192 215 224 222 221 218 215 216 219 222 226 228 228 228 227 226 223 222 222 223 223 224 226 228 231 232 233 234 238 242 239 235 237 240 242 243 243 243 244 245 249 255 262 268 272 277 286 296 310
248 254 261 261 255 248 247 252 257 257 254 254 249 246 250 251 247 243 240 232 238 243 223 190 169 158 146 143 147 155 163 166 171 177 180 185 196 215 221 220 221 218 216 217 220 225 228 230 229 224 221 220 218 215 213 218 222 224 225 227 231 232 233 233 236 242 241 238 238 241 242 243 247 247 248 247 247 250 254 260 265 269 275 280 287
256 257 258 258 252 247 253 259 257 254 249 243 239 242 245 245 241 231 228 223 229 227 198 171 169 159 147 153 162 171 178 182 184 180 176 184 203 223 227 226 227 225 224 223 225 227 228 231 230 223 217 213 213 212 209 212 218 223 226 227 230 231 231 232 236 242 243 240 238 240 242 242 245 248 250 251 250 249 250 254 258 262 265 269 273
260 259 257 256 253 254 257 254 251 248 239 228 226 228 228 231 229 215 205 205 211 207 187 175 167 148 145 153 160 171 180 183 183 184 189 197 213 227 230 232 233 233 233 232 232 231 229 227 223 215 210 209 207 214 218 215 215 221 227 229 230 231 230 233 237 242 244 243 241 241 242 241 242 246 249 252 252 250 249 251 254 256 260 262 263
262 258 255 255 256 258 253 242 242 242 233 223 211 209 212 217 216 205 197 202 208 197 180 175 160 147 153 156 151 155 167 178 187 195 200 204 216 226 231 239 241 242 241 238 239 237 234 232 229 218 221 229 223 220 222 215 211 214 222 228 231 230 228 232 237 242 244 244 245 243 242 243 243 245 248 250 252 252 251 249 251 253 255 257 258
259 255 253 255 257 255 244 233 235 238 227 201 191 195 198 204 210 204 202 204 205 188 167 166 164 157 158 154 142 137 153 172 189 200 205 211 220 227 234 242 243 246 248 249 255 259 261 264 275 265 245 244 235 228 228 221 222 221 218 222 231 231 227 232 237 242 245 246 248 248 247 247 245 245 246 247 249 250 251 251 250 251 251 253 255
256 255 256 257 252 249 241 233 234 234 220 186 183 193 191 199 208 203 198 191 197 194 166 163 164 150 139 131 132 145 170 183 195 204 209 216 224 233 240 242 242 247 251 255 264 272 277 274 278 271 244 236 231 229 230 226 227 229 226 223 227 235 233 235 238 242 246 248 250 251 250 249 246 245 245 246 247 247 249 250 251 251 250 250 251
256 258 260 260 251 246 238 228 230 226 211 182 183 195 191 199 203 199 202 186 190 203 171 152 141 125 120 126 140 157 182 197 212 216 218 224 230 237 240 241 240 247 252 254 261 268 273 264 266 263 241 235 231 228 231 226 222 226 231 228 224 231 238 237 237 241 247 248 249 251 250 249 248 246 245 245 246 245 246 248 250 251 251 249 249
255 256 255 257 251 243 229 217 224 220 197 175 178 194 199 206 202 199 207 189 179 180 152 130 127 131 134 143 151 163 189 204 216 224 230 234 234 233 234 240 240 244 248 252 260 267 268 250 244 240 231 235 230 226 232 225 221 221 222 229 224 215 224 232 234 237 242 246 246 248 250 251 250 247 245 245 245 244 244 245 246 249 250 249 248
252 252 245 246 247 236 219 212 227 231 217 180 175 198 211 211 207 204 204 186 164 156 132 118 137 152 161 161 161 177 196 203 213 225 234 235 232 229 233 241 244 248 251 254 256 251 240 228 224 222 222 232 229 224 229 225 223 219 214 223 224 218 216 217 229 234 234 240 243 245 248 250 251 249 245 243 244 244 243 243 243 245 247 248 248
248 248 242 241 240 223 204 212 231 236 228 196 187 205 202 184 188 200 208 203 176 157 137 139 154 161 166 163 172 191 198 203 215 224 232 235 231 233 243 242 241 247 250 252 245 230 228 225 219 219 219 224 225 218 222 225 226 221 215 218 221 224 219 199 206 222 229 235 237 240 246 250 251 250 247 243 243 244 243 243 243 243 245 246 247
246 247 245 242 234 217 209 232 231 229 223 210 207 202 188 176 181 197 207 203 182 168 155 151 151 156 158 163 185 197 198 204 213 219 227 236 236 242 252 248 242 246 247 248 243 229 231 230 221 217 218 221 221 215 215 219 223 218 219 223 221 223 221 205 199 204 218 230 231 237 241 245 249 249 249 247 245 245 244 244 243 243 243 244 245
249 248 249 240 228 216 217 237 222 213 217 216 210 201 192 186 196 205 206 193 173 164 147 135 138 138 138 161 191 200 205 206 206 212 223 233 236 239 246 248 247 249 251 253 251 242 236 235 225 213 213 216 214 216 219 221 222 218 221 230 229 226 227 226 217 200 207 220 221 230 239 240 244 248 252 252 248 247 245 244 244 243 243 243 244
249 248 242 226 223 229 229 226 202 194 205 209 199 189 187 191 205 221 233 219 164 142 114 119 144 136 140 168 183 200 212 209 207 216 225 227 228 224 228 240 244 246 250 252 252 245 233 228 221 213 213 213 206 213 225 224 219 215 221 234 234 231 230 237 248 231 222 233 232 234 246 252 251 252 257 255 248 246 246 246 245 245 244 244 245
248 247 241 231 235 247 236 219 198 189 195 203 197 184 183 190 194 205 237 251 210 356 86 118 152 138 149 169 178 198 211 212 213 226 237 228 226 226 226 234 237 241 246 245 243 236 226 219 215 212 216 222 208 206 225 217 205 206 219 236 235 231 229 235 253 254 251 261 261 253 251 256 260 257 254 253 250 248 247 248 248 248 248 248 247
246 242 242 251 251 245 227 202 193 194 195 197 192 181 184 188 185 189 199 199 191 194 159 149 160 123 124 148 163 190 206 209 209 220 237 232 234 242 240 235 233 237 242 242 238 229 220 214 211 211 220 235 221 192 204 198 194 200 214 231 236 233 234 237 246 253 255 248 245 252 248 249 261 258 246 247 253 254 252 251 252 253 253 251 249
248 261 295 304 261 246 228 205 201 198 193 189 181 175 183 184 181 184 184 190 194 187 180 168 146 90 70 73 100 140 190 202 204 210 220 225 235 243 243 240 239 244 245 239 236 234 225 213 210 218 222 236 240 212 204 203 202 206 216 230 237 239 243 248 250 257 263 256 234 238 243 244 256 257 246 242 244 247 249 250 248 246 244 244 246
303 352 333 297 252 243 234 219 210 194 185 179 171 173 181 180 178 181 182 193 200 183 174 160 130 102 94 99 97 87 95 171 194 205 213 222 231 234 239 243 245 252 253 244 239 238 227 214 215 227 229 230 244 248 229 224 227 223 230 238 242 247 249 254 256 256 266 271 257 236 238 246 256 258 255 250 241 237 243 249 249 248 247 250 250
315 329 301 272 253 241 212 198 184 170 168 167 170 177 179 178 179 182 187 199 202 184 166 145 127 115 108 106 109 109 114 127 150 191 203 208 218 222 228 239 237 238 247 245 239 235 229 224 220 226 235 232 237 254 250 239 246 246 245 250 254 257 258 260 261 260 266 273 270 253 229 240 256 261 270 271 246 232 238 250 259 260 259 262 258
289 282 269 259 253 232 200 192 175 162 164 169 175 178 174 175 179 184 193 199 194 172 148 133 121 111 94 84 90 105 129 147 158 177 179 184 206 218 219 226 224 223 232 234 230 232 241 247 240 233 238 241 241 250 248 243 251 257 257 265 266 265 267 268 266 267 268 272 278 282 254 228 245 257 281 307 263 235 235 240 251 259 255 255 254
275 271 265 263 267 242 217 209 186 167 166 171 173 173 170 171 175 183 190 189 181 158 139 130 117 101 85 78 74 74 91 117 128 133 140 166 198 218 221 225 222 219 223 228 231 230 237 248 249 245 240 242 250 249 246 248 252 258 264 267 263 263 266 269 272 271 265 268 281 291 290 244 248 259 275 313 324 285 249 241 244 251 246 245 249
284 274 275 296 301 267 220 202 187 171 166 169 171 172 170 168 173 178 180 182 180 161 143 132 112 95 81 75 70 62 61 62 64 72 74 96 132 192 217 224 226 223 220 220 223 222 225 229 233 239 239 238 246 252 252 246 245 254 262 262 258 267 267 271 283 281 272 267 277 285 289 273 251 261 271 294 316 329 309 311 298 273 254 248 252
300 307 324 324 296 256 204 186 180 169 163 167 174 177 172 171 175 175 176 186 183 163 145 123 99 87 78 71 68 61 54 49 42 44 47 50 57 64 85 105 185 218 211 203 200 204 207 204 207 217 226 231 233 238 237 226 239 258 262 258 253 262 272 279 281 282 289 276 270 278 284 277 246 252 293 322 317 329 76 41 310 294 291 275 269
303 331 1 342 295 236 197 182 179 170 163 167 178 183 176 173 178 178 176 182 176 160 140 112 92 83 75 65 62 57 49 40 33 30 29 35 42 51 72 88 94 110 136 159 163 168 179 194 199 195 207 220 221 223 222 209 226 252 254 254 241 231 247 261 261 267 280 268 269 287 294 313 35 56 65 60 13 26 84 101 149 262 315 292 281
292 319 348 345 323 221 195 181 179 174 167 171 181 185 182 182 185 183 178 180 176 159 139 116 99 86 74 62 57 53 44 34 28 23 20 26 34 35 61 93 117 134 138 137 143 152 168 191 195 194 206 210 211 216 215 202 208 223 233 235 226 221 224 223 213 212 210 212 241 270 276 297 26 41 69 111 125 254 37 73 134 138 117 137 160
257 269 308 345 338 220 202 190 188 185 176 179 187 188 190 192 188 185 185 186 179 160 141 122 105 87 74 63 53 45 37 30 26 21 14 16 27 35 55 82 110 141 151 148 151 171 186 193 191 195 201 199 203 208 206 206 199 186 188 185 188 201 213 220 202 181 195 200 194 180 186 211 81 51 310 175 185 200 155 126 199 266 112 138 155
253 235 233 316 191 205 209 206 205 203 192 188 191 189 189 191 187 188 193 189 177 160 141 125 109 87 71 58 46 37 31 26 22 19 12 8 16 34 56 75 89 103 140 155 162 182 195 196 188 185 189 194 202 202 203 207 195 192 200 187 176 186 197 210 204 185 188 182 161 162 171 177 127 84 24 359 220 177 142 140 159 212 226 196 204
236 230 215 176 151 180 208 213 208 206 201 195 192 188 188 190 189 194 199 191 176 159 146 136 120 92 67 47 35 30 27 23 17 13 8 6 12 24 47 76 103 96 115 147 160 169 179 181 171 171 179 186 193 200 206 207 199 205 210 196 188 195 190 174 150 149 150 139 130 129 124 111 108 104 86 70 56 70 99 131 146 169 200 212 225
157 188 206 183 159 181 203 206 203 203 204 198 194 194 197 196 195 199 198 187 175 166 161 156 138 102 62 41 32 27 24 20 14 9 5 4 11 25 41 68 93 102 111 127 133 139 146 140 137 146 161 164 171 188 197 198 201 208 209 205 204 203 189 151 112 123 130 130 123 116 109 106 105 100 91 88 112 125 119 125 146 164 192 219 239